Location: Zagreb
(45.8000°N, 16.0000°E)
Time: 02:35:41
(UTC+02:00)

Transit 2A Rocket - Pass Details

Date: 25 January 2022
Orbit: 592 x 909 km, 66.7° (Epoch: 26 May)

Event Time Altitude Azimuth Distance (km) Brightness Sun altitude
Rises 17:35:25 0° 175° (S) 3,457 8.6 -7.9°
Reaches altitude 10° 17:38:12 10° 164° (SSE) 2,553 7.7 -8.3°
Maximum altitude 17:43:08 27° 108° (ESE) 1,659 6.3 -9.2°
Enters shadow 17:47:59 11° 54° (NE) 2,556 7.1 -10.0°
Drops below altitude 10° 17:48:08 10° 53° (NE) 2,599 - -10.0°
Sets 17:50:59 0° 42° (NE) 3,533 - -10.5°
